Flag for Germany Past Weather in Neustadt am Rübenberge, Lower Saxony, Germany — Yesterday and Last 2 Weeks

Now
66 °F

Mild.


Feels Like: 66 °F
Forecast: 61 / 74 °F
Wind: 7 mph from Southwest

Location: Wunstorf Airport

Current Time: Jul 28, 2016 at 2:56:38 AM

Latest Report: Jul 28, 2016 at 2:20 AM


Visibility: N/A

Pressure: 29.98 "Hg

Humidity: 73%

Dew Point: 57 °F

Location of Neustadt am RübenbergeLocation

Past Weather in Neustadt am Rübenberge — Graph

°F

Neustadt am Rübenberge Temperature Yesterday

Maximum temperature yesterday: 77 °F (at 2:20 PM)
Minimum temperature yesterday: 59 °F (at 6:20 AM)
Average temperature yesterday: 69 °F

High & Low Weather Summary for the Past Weeks

 TemperatureHumidityPressure
High88 °F (Jul 20, 3:20 PM)94% (Jul 13, 2:20 AM)30.24 "Hg (Jul 13, 2:20 AM)
Low52 °F (Jul 16, 3:20 AM)27% (Jul 24, 3:20 PM)29.86 "Hg (Jul 13, 1:20 AM)
Average69 °F68%30.06 "Hg
* Reported Jul 13 1:20 AM — Jul 28 1:20 AM, Neustadt am Rübenberge, Weather by CustomWeather, © 2016

Note: Actual official high and low records may vary slightly from our data, if they occured in-between our weather recording intervals... More about our weather records

Advertising

Neustadt am Rübenberge Weather History for the Previous 24 Hours

Scroll right to see more
 ConditionsComfort  
Time TempWeatherWind HumidityBarometerVisibility
1:20 AM
Thu, Jul 28
68 °FMild.13 mph69%29.98 "HgN/A
12:20 AM68 °FMild.6 mph69%29.98 "Hg6 mi
11:20 PM
Wed, Jul 27
68 °FMild.5 mph69%29.98 "HgN/A
10:20 PM70 °FMild.9 mph64%29.98 "Hg6 mi
9:20 PM72 °FMild.6 mph53%29.98 "HgN/A
8:20 PM73 °FMild.8 mph50%29.98 "HgN/A
7:20 PM75 °FPassing clouds.12 mph47%29.95 "HgN/A
6:20 PM75 °FScattered clouds.15 mph50%29.95 "HgN/A
5:20 PM77 °FScattered clouds.15 mph47%29.95 "HgN/A
4:20 PM75 °FScattered clouds.14 mph54%29.95 "HgN/A
3:20 PM75 °FBroken clouds.12 mph50%29.95 "HgN/A
2:20 PM77 °FPartly sunny.10 mph47%29.95 "HgN/A
1:20 PM75 °FScattered clouds.10 mph57%29.98 "HgN/A
12:20 PM73 °FPartly sunny.7 mph57%30.01 "HgN/A
11:20 AM70 °FPartly sunny.3 mph73%30.01 "HgN/A
10:20 AM66 °FPartly sunny.3 mph78%30.01 "HgN/A
9:20 AM66 °FPartly sunny.3 mph78%30.01 "HgN/A
8:20 AM63 °FPartly sunny.2 mph88%30.04 "HgN/A
7:20 AM61 °FPartly sunny.3 mph94%30.04 "HgN/A
6:20 AM59 °FPassing clouds.5 mph94%30.04 "HgN/A
5:20 AM61 °FMostly cloudy.8 mph88%30.04 "HgN/A
4:20 AM61 °FCool.3 mph94%30.07 "Hg4 mi
3:20 AM63 °FMild.3 mph88%30.07 "Hg4 mi
2:20 AM63 °FMild.5 mph94%30.09 "Hg5 mi
Weather by CustomWeather, © 2016

See weather overviewHow to use our weather pages